TimeCDT,TemperatureF,Dew PointF,Humidity,Sea Level PressureIn,VisibilityMPH,Wind Direction,Wind SpeedMPH,Gust SpeedMPH,PrecipitationIn,Events,Conditions,WindDirDegrees,DateUTC
12:15 AM,77.0,64.4,65,30.01,10.0,East,10.4,-,N/A,,Clear,90,2013-07-29 05:15:00
12:35 AM,75.2,64.4,69,30.01,10.0,East,9.2,-,N/A,,Clear,100,2013-07-29 05:35:00
12:55 AM,75.2,66.2,73,30.02,10.0,East,9.2,-,N/A,,Clear,90,2013-07-29 05:55:00
1:15 AM,73.4,66.2,78,30.01,10.0,East,8.1,-,N/A,,Clear,90,2013-07-29 06:15:00
1:35 AM,73.4,66.2,78,30.02,10.0,East,8.1,-,N/A,,Clear,90,2013-07-29 06:35:00
1:55 AM,73.4,66.2,78,30.03,10.0,East,4.6,-,N/A,,Clear,80,2013-07-29 06:55:00
2:15 AM,73.4,66.2,78,30.03,10.0,ENE,5.8,-,N/A,,Clear,60,2013-07-29 07:15:00
2:55 AM,71.6,66.2,83,30.03,10.0,NE,3.5,-,N/A,,Scattered Clouds,50,2013-07-29 07:55:00
3:15 AM,71.6,66.2,83,30.02,10.0,ENE,4.6,-,N/A,,Mostly Cloudy,70,2013-07-29 08:15:00
3:35 AM,73.4,66.2,78,30.02,10.0,ENE,5.8,-,N/A,,Mostly Cloudy,60,2013-07-29 08:35:00
3:55 AM,73.4,66.2,78,30.03,10.0,ENE,5.8,-,N/A,,Mostly Cloudy,60,2013-07-29 08:55:00
4:15 AM,71.6,66.2,83,30.03,10.0,East,5.8,-,N/A,,Mostly Cloudy,80,2013-07-29 09:15:00
4:35 AM,71.6,66.2,83,30.02,10.0,East,6.9,-,N/A,,Mostly Cloudy,80,2013-07-29 09:35:00
4:55 AM,71.6,66.2,83,30.03,10.0,East,6.9,-,N/A,,Mostly Cloudy,90,2013-07-29 09:55:00
5:15 AM,71.6,68.0,88,30.03,10.0,East,6.9,-,N/A,,Mostly Cloudy,80,2013-07-29 10:15:00
5:35 AM,71.6,68.0,88,30.03,10.0,East,6.9,-,N/A,,Scattered Clouds,80,2013-07-29 10:35:00
5:55 AM,71.6,68.0,88,30.03,10.0,East,6.9,-,N/A,,Clear,90,2013-07-29 10:55:00
6:15 AM,71.6,68.0,88,30.03,10.0,East,6.9,-,N/A,,Clear,90,2013-07-29 11:15:00
6:35 AM,71.6,68.0,88,30.04,10.0,East,9.2,-,N/A,,Clear,90,2013-07-29 11:35:00
6:55 AM,71.6,68.0,88,30.04,10.0,East,8.1,-,N/A,,Clear,90,2013-07-29 11:55:00
7:15 AM,71.6,68.0,88,30.05,10.0,East,9.2,-,N/A,,Scattered Clouds,80,2013-07-29 12:15:00
7:35 AM,71.6,68.0,88,30.05,10.0,East,9.2,-,N/A,,Clear,80,2013-07-29 12:35:00
7:55 AM,71.6,68.0,88,30.05,10.0,East,9.2,-,N/A,,Clear,80,2013-07-29 12:55:00
8:15 AM,71.6,68.0,88,30.05,10.0,East,12.7,-,N/A,,Clear,90,2013-07-29 13:15:00
8:35 AM,73.4,68.0,83,30.06,10.0,East,9.2,16.1,N/A,,Clear,90,2013-07-29 13:35:00
8:55 AM,75.2,68.0,78,30.06,10.0,East,11.5,-,N/A,,Clear,90,2013-07-29 13:55:00
9:15 AM,75.2,68.0,78,30.06,10.0,East,12.7,17.3,N/A,,Clear,100,2013-07-29 14:15:00
9:35 AM,78.8,69.8,74,30.06,10.0,East,11.5,-,N/A,,Scattered Clouds,100,2013-07-29 14:35:00
9:55 AM,78.8,68.0,69,30.05,10.0,East,11.5,17.3,N/A,,Clear,100,2013-07-29 14:55:00
10:15 AM,78.8,69.8,74,30.06,10.0,East,11.5,-,N/A,,Clear,90,2013-07-29 15:15:00
10:35 AM,80.6,69.8,70,30.05,10.0,ESE,11.5,16.1,N/A,,Clear,110,2013-07-29 15:35:00
10:55 AM,80.6,69.8,70,30.06,10.0,ESE,10.4,16.1,N/A,,Clear,110,2013-07-29 15:55:00
11:15 AM,80.6,69.8,70,30.06,10.0,East,10.4,-,N/A,,Mostly Cloudy,100,2013-07-29 16:15:00
11:35 AM,80.6,69.8,70,30.06,10.0,SE,9.2,-,N/A,,Mostly Cloudy,140,2013-07-29 16:35:00
11:55 AM,82.4,71.6,70,30.06,10.0,SE,5.8,-,N/A,,Overcast,130,2013-07-29 16:55:00
12:15 PM,82.4,71.6,70,30.05,10.0,ESE,9.2,-,N/A,,Mostly Cloudy,120,2013-07-29 17:15:00
12:35 PM,84.2,71.6,66,30.04,10.0,SE,9.2,-,N/A,,Scattered Clouds,130,2013-07-29 17:35:00
12:55 PM,84.2,71.6,66,30.04,10.0,ESE,11.5,-,N/A,,Mostly Cloudy,110,2013-07-29 17:55:00
1:15 PM,86.0,71.6,62,30.04,10.0,SE,11.5,17.3,N/A,,Mostly Cloudy,140,2013-07-29 18:15:00
1:35 PM,86.0,71.6,62,30.04,10.0,SSE,10.4,18.4,N/A,,Scattered Clouds,150,2013-07-29 18:35:00
1:55 PM,86.0,71.6,62,30.03,10.0,SE,9.2,-,N/A,,Scattered Clouds,140,2013-07-29 18:55:00
2:15 PM,86.0,71.6,62,30.03,10.0,SE,10.4,-,N/A,,Scattered Clouds,140,2013-07-29 19:15:00
2:35 PM,86.0,71.6,62,30.03,10.0,SSE,9.2,17.3,N/A,,Scattered Clouds,150,2013-07-29 19:35:00
2:55 PM,86.0,71.6,62,30.03,10.0,SE,12.7,16.1,N/A,,Scattered Clouds,140,2013-07-29 19:55:00
3:15 PM,86.0,71.6,62,30.02,7.0,SE,9.2,-,N/A,,Scattered Clouds,140,2013-07-29 20:15:00
3:35 PM,86.0,71.6,62,30.02,7.0,SSE,11.5,-,N/A,,Scattered Clouds,150,2013-07-29 20:35:00
3:55 PM,86.0,71.6,62,30.01,7.0,SSE,10.4,-,N/A,,Scattered Clouds,160,2013-07-29 20:55:00
4:15 PM,86.0,71.6,62,30.01,10.0,SSE,9.2,-,N/A,,Scattered Clouds,150,2013-07-29 21:15:00
4:35 PM,87.8,71.6,58,30.00,10.0,SE,8.1,-,N/A,,Clear,140,2013-07-29 21:35:00
4:55 PM,87.8,71.6,58,29.99,7.0,SSE,8.1,-,N/A,,Clear,160,2013-07-29 21:55:00
5:15 PM,87.8,71.6,58,29.99,10.0,SSE,10.4,-,N/A,,Scattered Clouds,150,2013-07-29 22:15:00
5:35 PM,87.8,71.6,58,29.98,10.0,SE,9.2,-,N/A,,Clear,140,2013-07-29 22:35:00
5:55 PM,86.0,71.6,62,29.98,10.0,SE,6.9,-,N/A,,Clear,140,2013-07-29 22:55:00
6:15 PM,86.0,71.6,62,29.98,10.0,SE,6.9,-,N/A,,Clear,140,2013-07-29 23:15:00
6:35 PM,86.0,71.6,62,29.97,10.0,SE,9.2,-,N/A,,Clear,140,2013-07-29 23:35:00
6:55 PM,86.0,71.6,62,29.97,10.0,SE,6.9,-,N/A,,Clear,140,2013-07-29 23:55:00
7:15 PM,86.0,71.6,62,29.97,10.0,SE,4.6,-,N/A,,Clear,130,2013-07-30 00:15:00
7:35 PM,86.0,71.6,62,29.98,10.0,SE,5.8,-,N/A,,Clear,140,2013-07-30 00:35:00
7:55 PM,84.2,71.6,66,29.98,10.0,SSE,4.6,-,N/A,,Clear,150,2013-07-30 00:55:00
8:15 PM,84.2,71.6,66,29.98,10.0,SE,5.8,-,N/A,,Clear,140,2013-07-30 01:15:00
8:35 PM,84.2,71.6,66,29.97,10.0,SE,6.9,-,N/A,,Clear,140,2013-07-30 01:35:00
8:55 PM,84.2,69.8,62,29.98,10.0,SE,5.8,-,N/A,,Clear,140,2013-07-30 01:55:00
9:15 PM,82.4,69.8,66,29.98,10.0,SE,5.8,-,N/A,,Clear,130,2013-07-30 02:15:00
9:35 PM,82.4,69.8,66,29.99,10.0,SE,6.9,-,N/A,,Clear,130,2013-07-30 02:35:00
9:55 PM,82.4,69.8,66,30.00,10.0,SE,5.8,-,N/A,,Clear,130,2013-07-30 02:55:00
10:15 PM,82.4,69.8,66,29.99,10.0,SE,4.6,-,N/A,,Clear,130,2013-07-30 03:15:00
10:35 PM,82.4,69.8,66,30.00,10.0,SE,4.6,-,N/A,,Clear,130,2013-07-30 03:35:00
10:55 PM,82.4,69.8,66,29.99,10.0,ESE,4.6,-,N/A,,Clear,120,2013-07-30 03:55:00
11:15 PM,82.4,69.8,66,29.99,10.0,SE,5.8,-,N/A,,Clear,130,2013-07-30 04:15:00
11:35 PM,82.4,69.8,66,30.00,10.0,SE,4.6,-,N/A,,Clear,130,2013-07-30 04:35:00
11:55 PM,80.6,69.8,70,29.99,10.0,ESE,6.9,-,N/A,,Clear,110,2013-07-30 04:55:00